Cloud_Cover
0 0 0 0 0 0 0 0 0 0 0 0 0 0 0 0 0 0 0 0 0 0 0 0 0 0 0 0 0 0 0 0 0 0 0 0 0 0 0 0 0 0 0 0 8 12 24 32 24 20 20 24 12 20 24 12 8 0 0 0 0 0 0 0 0 0 0 0 0
0 0 0 0 0 0 0 0 0 0 0 0 0 0 0 0 0 0 0 0 0 0 0 0 0 0 0 0 0 0 0 8 8 8 8 12 8 0 0 0 0 8 8 12 12 20 20 24 12 8 8 20 8 8 8 20 0 0 0 0 0 0 0 0 0 0 0 0 0
0 0 0 0 0 0 0 0 0 0 0 0 0 0 0 0 0 0 0 0 0 0 0 0 0 0 0 0 0 8 12 12 8 8 8 20 20 12 8 8 0 8 12 20 20 24 32 32 12 0 0 0 0 0 8 20 0 0 0 0 0 0 0 0 20 12 8 12 8
0 0 0 0 0 0 0 0 0 0 0 0 0 0 0 0 0 0 0 0 0 0 0 0 0 0 0 0 0 8 12 12 12 20 20 20 24 20 12 8 8 8 12 36 44 36 24 12 8 8 12 20 0 8 12 12 0 0 8 36 8 12 24 20 8 0 0 8 8
0 0 0 0 0 0 0 0 0 0 0 0 0 0 0 0 8 8 8 8 8 8 8 8 8 0 8 8 8 8 8 12 20 24 24 24 32 24 12 12 12 12 24 44 36 32 32 36 24 24 36 56 24 12 20 48 32 36 44 12 24 32 36 56 20 12 20 12 32
0 0 0 0 0 0 0 0 0 0 0 0 0 0 0 0 8 12 12 20 20 20 24 24 20 24 32 24 20 20 24 24 32 32 32 24 24 20 12 8 12 12 24 44 36 44 44 32 20 12 24 44 44 44 48 36 48 44 24 12 36 44 36 20 56 48 36 48 68
0 0 0 8 12 8 0 0 0 0 0 0 0 0 0 0 12 20 20 20 12 20 24 44 36 48 64 56 44 36 32 24 32 32 32 24 20 20 12 20 20 12 20 32 44 68 88 68 56 56 56 48 48 56 56 44 36 24 20 32 20 12 12 24 44 24 24 88 76
0 0 0 12 20 12 8 0 0 0 0 0 0 0 8 8 20 24 24 24 20 20 20 24 44 56 56 56 48 36 32 12 12 8 8 0 0 8 12 8 8 12 20 36 48 76 92 92 92 88 88 80 76 68 64 48 44 48 56 48 32 20 8 12 12 12 20 32 76
0 8 12 12 8 8 0 0 0 0 0 12 20 20 24 24 24 32 32 32 32 32 24 20 20 20 24 24 24 20 12 8 12 20 12 8 8 32 48 56 48 48 48 64 80 88 88 88 92 92 92 92 92 92 88 76 64 68 68 56 36 24 24 24 32 24 32 68 76
8 12 20 8 12 12 12 8 8 12 20 24 32 32 36 36 44 44 44 44 36 32 32 24 20 20 12 12 8 8 8 12 12 12 20 24 32 36 44 56 64 76 80 92 88 76 56 56 76 88 92 92 92 92 92 92 92 92 88 80 56 36 36 44 44 48 56 64 64
24 24 20 20 20 20 20 24 32 36 44 48 48 48 44 44 48 48 44 44 44 44 44 44 32 24 20 12 8 0 0 8 20 20 20 32 36 48 68 88 92 92 88 68 64 56 48 44 56 76 92 92 92 92 92 92 92 92 88 76 64 64 68 68 68 68 64 48 64
32 32 32 36 32 32 32 36 44 48 48 56 64 56 44 32 48 48 44 44 48 48 56 68 44 32 20 8 0 0 0 8 8 8 12 36 44 56 64 64 80 76 64 32 32 32 36 48 76 88 92 92 92 92 92 92 88 88 88 80 64 56 56 56 56 56 64 64 76
44 44 48 48 48 48 48 56 56 56 56 56 64 56 44 44 64 64 48 44 44 36 36 48 24 20 12 0 0 0 0 0 0 0 12 32 32 36 36 24 44 32 12 8 8 8 12 24 76 92 92 92 92 92 92 92 92 88 88 88 68 64 64 56 48 64 80 92 92
48 56 64 56 56 64 64 68 64 56 48 48 64 56 48 44 48 48 44 24 24 12 8 0 0 8 8 0 0 0 0 0 20 20 20 32 44 48 48 32 12 32 48 56 48 56 68 92 92 92 92 92 92 92 92 92 92 92 88 88 88 80 76 76 76 80 92 92 92
64 68 68 56 64 68 68 64 56 56 48 44 56 48 44 32 24 20 8 0 0 0 0 0 0 0 0 0 0 0 0 0 32 32 32 32 64 44 20 36 24 48 88 92 92 92 92 92 88 88 92 92 92 92 92 92 92 92 92 92 92 92 92 92 92 92 92 92 92
80 80 76 48 64 64 64 64 64 48 44 32 32 24 12 8 8 0 0 0 0 0 0 0 0 0 8 8 8 8 8 12 20 32 36 20 24 12 12 24 32 44 64 68 76 76 80 80 80 80 80 92 92 92 92 92 92 92 92 92 92 92 92 92 92 92 92 92 92
76 76 76 64 64 56 48 44 36 32 20 8 8 8 8 8 8 0 0 0 0 0 0 0 8 8 12 12 12 20 20 12 12 12 12 0 0 12 24 32 32 32 36 36 44 56 64 76 80 80 88 92 92 92 92 92 92 92 92 92 92 92 92 92 92 92 92 92 92
68 68 76 68 56 36 24 12 8 8 12 8 8 8 8 8 8 0 0 0 0 8 8 12 12 12 12 20 20 12 8 0 0 8 12 20 20 24 32 32 32 32 36 36 44 48 56 76 88 92 92 92 92 92 92 92 92 92 92 92 92 92 92 92 92 92 92 92 92
64 56 48 32 20 12 8 8 8 8 12 8 8 8 8 8 0 0 0 0 8 12 20 20 12 12 20 20 8 0 0 0 12 24 36 44 24 12 8 8 8 8 8 20 24 44 64 64 68 76 80 88 92 92 92 92 92 92 92 88 88 88 92 92 92 92 92 92 92
32 20 20 8 8 8 8 8 8 8 8 8 8 8 8 0 8 8 12 12 12 12 12 20 12 20 12 0 0 0 0 0 8 12 20 20 8 0 0 0 0 0 8 32 24 44 68 68 76 76 80 88 92 92 92 92 92 92 88 88 88 88 88 92 92 92 92 92 92
8 8 12 12 12 12 8 12 12 8 8 8 8 8 8 12 12 20 20 20 12 12 20 20 12 8 0 0 0 0 0 0 0 0 0 0 0 0 0 0 0 0 8 24 20 36 64 68 68 80 92 92 92 92 92 92 92 92 92 92 92 92 92 92 92 92 92 92 92
8 8 12 12 12 12 20 12 12 12 20 20 20 20 24 12 24 32 24 8 0 8 8 0 0 0 0 0 0 0 0 0 0 0 0 0 0 0 0 0 0 0 0 0 0 8 32 68 80 88 92 92 92 92 92 92 92 92 92 92 92 92 92 88 92 92 92 92 92
0 0 0 0 8 20 24 20 12 20 32 48 44 36 32 32 32 24 12 0 0 0 0 0 0 0 0 0 0 0 0 0 0 0 0 0 0 0 0 0 0 0 0 0 0 0 0 20 20 36 56 56 56 68 80 88 92 92 92 88 88 88 88 88 88 88 88 88 88
0 0 0 0 8 20 24 36 20 36 56 48 32 32 32 32 24 12 0 0 0 0 0 0 0 0 0 0 0 0 8 8 8 0 0 0 0 0 0 0 0 0 0 0 0 0 0 0 0 20 36 44 44 48 56 56 48 48 56 76 88 56 20 20 20 32 48 68 76
12 20 20 20 32 36 44 44 36 36 32 24 12 24 32 20 8 0 0 0 0 0 0 0 0 0 0 0 0 8 20 8 8 0 0 0 0 0 0 0 0 0 0 0 0 0 0 0 12 20 32 36 36 36 36 32 32 24 24 24 24 12 0 0 0 0 8 12 12
12 20 24 36 48 48 48 56 36 32 20 0 8 12 8 0 0 0 0 0 0 0 0 8 20 12 0 0 0 8 12 8 8 0 0 0 0 0 0 0 0 0 0 0 0 0 0 0 12 20 20 20 20 20 12 12 8 8 8 0 0 0 0 0 0 0 0 0 24
24 36 44 64 56 56 64 64 44 24 12 12 12 8 0 0 0 0 0 8 0 0 8 8 12 12 8 0 0 8 8 0 0 0 0 0 0 0 0 0 0 0 0 0 0 0 0 12 12 12 12 8 0 0 0 0 0 0 0 0 0 0 0 0 0 0 0 0 0
32 48 64 56 48 36 36 36 36 32 24 20 12 12 8 8 0 0 0 0 8 8 0 0 0 0 0 0 0 0 0 0 0 0 0 0 0 0 0 0 0 0 0 0 0 0 8 8 8 8 0 0 0 0 0 0 0 0 0 0 0 0 0 0 0 0 0 0 0
36 44 44 36 44 32 24 20 32 32 32 24 24 20 12 8 0 0 0 0 8 12 12 0 0 0 0 0 8 0 0 0 0 0 0 0 0 0 0 0 0 0 0 0 0 0 0 0 0 0 0 0 0 0 0 0 0 0 0 0 0 0 0 0 0 0 0 0 0
8 8 8 24 20 12 12 20 24 24 32 32 24 20 12 8 0 0 0 0 24 36 36 0 8 8 12 12 8 8 0 0 0 0 0 0 0 0 0 0 0 0 0 0 0 0 0 0 0 0 0 0 0 0 0 0 0 0 0 0 0 0 0 0 0 0 0 0 0
12 12 8 0 0 8 20 24 32 24 24 24 20 20 20 12 0 0 8 20 36 48 56 48 20 20 24 20 12 8 8 0 0 0 0 0 0 0 0 0 0 0 0 0 0 0 0 0 0 0 0 0 0 0 0 0 0 0 0 0 0 0 0 0 0 0 0 0 0
8 8 0 0 0 24 44 44 36 32 32 24 32 32 32 24 20 20 20 24 48 56 68 88 44 32 32 24 12 8 0 0 0 0 0 0 0 0 0 0 0 0 0 0 0 0 0 0 0 0 0 0 0 0 0 0 0 0 0 0 0 0 0 0 0 0 0 0 64
12 8 0 0 8 32 56 68 56 48 44 36 48 48 36 36 36 44 48 44 44 48 56 56 56 48 36 20 12 8 0 0 0 0 0 0 0 0 0 0 0 0 0 0 0 0 0 0 0 0 0 0 0 0 0 0 0 0 0 0 0 0 0 0 0 8 20 56 64
12 8 0 8 20 44 68 92 68 56 48 48 56 48 36 32 32 44 48 48 44 48 48 56 48 36 24 20 8 8 0 0 0 0 0 0 0 0 0 0 0 0 0 0 0 0 0 0 0 0 0 0 0 0 0 0 0 0 0 0 0 0 0 0 0 44 88 88 64
20 12 8 8 24 44 64 92 88 68 64 64 56 48 36 24 36 36 36 44 44 48 56 48 36 24 20 12 8 8 0 0 0 0 0 0 8 8 0 0 0 0 0 0 0 0 0 0 0 0 0 0 0 0 0 0 0 0 0 0 0 0 0 0 0 44 80 68 64
32 24 20 12 24 44 64 88 80 76 64 48 56 44 32 24 36 44 44 48 48 64 64 44 32 20 12 12 8 0 0 0 0 0 0 0 24 32 20 0 0 0 0 0 0 0 0 0 0 0 0 0 0 0 0 0 0 0 0 0 0 0 0 0 8 44 68 36 32
48 36 12 8 32 56 80 76 80 80 68 44 56 48 44 48 48 48 56 64 68 68 64 32 20 12 12 8 8 8 0 0 0 0 0 8 12 32 36 0 0 0 0 0 0 0 0 0 0 0 0 0 0 0 0 0 0 0 0 0 0 0 0 0 12 32 44 48 56
44 20 8 8 44 76 88 80 88 80 68 48 56 64 68 56 48 48 64 68 76 64 48 20 12 12 8 8 8 0 0 0 0 12 24 24 20 12 8 0 0 0 0 0 0 0 0 0 0 0 0 0 0 0 0 0 8 12 8 0 12 20 24 12 24 36 48 76 80
20 0 8 44 80 92 92 92 92 80 76 68 68 76 68 44 56 68 76 68 68 56 44 24 12 8 8 0 0 0 0 0 0 12 24 20 12 0 0 0 0 0 0 0 0 0 0 0 0 0 0 0 0 0 0 0 44 56 36 0 44 68 76 56 80 76 68 76 68
0 8 24 80 88 92 92 92 88 80 76 80 64 56 64 68 76 76 68 68 68 64 44 24 12 8 0 0 0 0 0 0 0 0 0 0 0 0 0 0 0 0 0 8 24 20 8 0 0 0 0 0 0 0 0 12 64 80 68 36 68 80 80 80 80 76 64 64 36
0 20 56 92 92 92 92 92 88 80 76 64 64 64 68 76 76 64 64 68 64 56 44 32 24 20 12 12 8 0 0 0 0 0 0 0 0 0 0 0 0 0 0 12 36 32 12 0 0 0 0 0 0 0 12 48 76 80 80 80 80 80 80 80 76 76 68 48 32